{"data":{"norad_id":59612,"epoch":"2026-09-21T13:51:29.653920Z","epoch_age_seconds":75145,"freshness":"FRESH","line1":"1 59612U 24080M   26264.57742655  .00000235  00000+0  18075-4 0  9992","line2":"2 59612  43.0019   7.9645 0001189 274.4401  85.6315 15.27575373135703","mean_motion":15.27575373,"eccentricity":0.0001189,"inclination_deg":43.0019,"raan_deg":7.9645,"arg_perigee_deg":274.4401,"mean_anomaly_deg":85.6315,"bstar":1.8075e-5,"rev_number":13570,"period_min":94.267034246041,"perigee_km":482.24715430301,"apogee_km":483.87874765135,"semimajor_km":6861.1999509772,"source":"CELESTRAK","updated_at":"2026-09-22T09:00:49.011984Z"}}